ECMWFNIL_850_thetae_105.txt.gz
Theta_e
281 280 280 279 278 277 277 276 275 274 273 273 272 272 271 270 270 269 269 269 268 268 268 268 268 268 267 267 267 267 267 267 267 267 266 266 266 266 266 266 266 265
281 280 279 279 278 277 276 276 274 273 273 272 272 271 270 270 269 269 269 268 268 268 268 268 267 267 267 267 267 267 267 267 267 266 266 266 266 266 266 266 265 265
280 280 279 278 277 277 276 275 274 273 272 272 271 270 270 269 269 269 268 268 268 268 268 267 267 267 267 267 266 266 266 266 266 266 266 266 266 266 265 265 265 265
280 279 279 278 277 276 275 274 273 272 272 271 271 270 270 269 269 268 268 268 268 268 267 267 267 267 267 266 266 266 266 266 266 266 266 266 265 265 265 265 265 265
279 279 278 277 276 275 274 273 273 272 271 271 270 270 269 269 268 268 268 268 267 267 267 267 266 266 266 266 266 266 265 265 265 265 265 265 265 265 265 264 264 264
279 278 277 276 275 274 273 273 272 272 271 271 270 270 269 269 268 268 268 267 267 267 266 266 266 266 266 266 265 265 265 265 265 265 264 264 264 264 264 264 264 264
278 277 276 275 274 273 273 272 272 272 271 271 270 270 269 268 268 268 267 267 267 266 266 266 266 265 265 265 265 265 265 264 264 264 264 264 264 264 264 264 264 264
277 277 276 275 273 273 272 272 272 272 271 271 270 270 269 268 268 268 267 266 266 266 265 265 265 265 265 265 265 265 264 264 264 263 263 264 264 264 264 264 264 264
277 276 275 274 273 272 272 272 272 271 271 270 270 269 269 268 268 268 267 266 266 265 265 265 265 265 265 265 265 264 264 264 263 263 263 263 264 264 264 264 263 263
276 275 274 273 272 272 272 272 271 271 270 270 269 269 269 268 268 267 267 266 266 265 265 265 265 265 265 264 264 264 264 263 263 263 263 263 264 264 263 263 263 263
276 274 273 272 272 272 272 271 271 270 270 269 269 269 268 268 268 267 266 266 265 265 265 264 264 264 264 264 264 264 263 263 263 263 263 263 263 263 263 263 263 263
275 273 273 272 272 272 271 271 270 270 269 269 269 268 268 268 267 267 266 265 265 265 264 264 264 264 264 264 264 263 263 263 263 263 263 263 263 263 263 263 263 263
274 273 273 272 272 271 271 270 270 270 269 269 268 268 268 267 267 266 266 265 265 264 264 264 264 264 264 264 263 263 263 263 263 263 263 263 263 263 263 263 263 263
273 273 272 272 271 271 270 270 270 269 269 268 268 268 267 267 267 266 265 265 264 264 264 264 264 264 263 263 263 263 263 263 263 263 263 263 263 264 264 263 263 263
273 272 272 271 271 271 270 270 269 269 268 268 268 267 267 267 266 266 265 265 264 264 264 264 264 264 263 263 263 263 263 264 264 264 264 264 264 264 264 263 263 263
272 272 272 271 271 270 270 270 269 269 268 268 267 267 267 266 266 266 265 265 264 264 264 264 264 264 264 264 263 263 264 264 264 264 264 263 263 263 263 263 263 262
272 272 271 271 270 270 270 269 269 268 268 267 267 267 266 266 266 266 265 265 264 264 264 264 264 264 264 264 264 264 264 264 264 263 263 263 263 263 262 262 262 262
272 271 271 270 270 269 269 269 268 268 268 267 267 267 266 266 266 266 265 265 265 264 264 264 264 264 264 264 264 264 265 265 264 264 264 263 263 262 262 262 262 262
272 271 270 270 269 269 269 268 268 268 267 267 267 266 266 266 266 266 265 265 265 265 265 265 265 264 264 264 264 264 265 265 265 264 263 263 262 262 262 262 262 262
271 270 270 270 269 269 269 268 268 267 267 267 266 266 266 266 266 265 265 265 265 265 264 264 265 265 264 264 264 264 264 265 265 264 263 263 262 262 262 262 262 262
270 270 270 270 269 269 268 268 268 267 267 267 266 266 266 266 266 265 265 265 265 264 264 264 265 265 264 264 264 264 264 264 264 263 263 263 263 263 263 263 263 262
270 270 270 269 269 268 268 268 267 267 267 266 266 266 266 266 266 265 265 265 265 264 264 264 265 265 264 264 264 264 264 263 263 263 263 263 263 263 263 263 263 262
270 270 269 269 268 268 268 267 267 267 267 266 266 266 266 266 266 265 265 265 265 264 264 264 265 264 264 264 263 263 263 262 262 262 262 262 263 263 263 263 262 262
270 269 269 269 268 268 267 267 267 267 266 266 266 266 266 266 265 265 265 265 265 264 264 264 264 264 264 263 263 263 262 262 261 261 261 262 262 262 262 262 262 262
270 269 269 268 268 267 267 267 267 267 266 266 266 266 266 266 265 265 265 265 265 264 264 264 264 264 264 263 263 263 262 261 261 261 261 261 262 262 262 262 262 262
270 269 269 268 268 267 267 267 267 266 266 266 266 266 265 265 265 265 265 265 265 264 264 264 263 263 263 263 263 263 262 261 261 261 261 261 261 261 262 262 262 262

ECMWFNIL_850_thetae_108.txt.gz
Theta_e
287 286 285 284 283 282 281 281 280 280 279 278 277 275 274 273 273 273 273 272 272 272 271 271 270 270 269 269 268 268 267 267 267 267 267 267 266 266 266 266 266 265
287 286 285 284 283 282 281 280 280 279 278 277 276 275 274 273 273 272 272 272 272 271 271 270 270 269 269 268 268 267 267 267 267 267 267 266 266 266 265 265 265 265
287 286 285 283 282 281 281 280 279 279 278 277 275 274 273 273 272 272 272 271 271 271 270 270 269 269 268 268 267 267 267 267 267 267 266 266 266 265 265 265 265 265
287 285 284 283 282 281 280 279 279 278 277 276 275 273 273 272 272 272 271 271 271 270 270 269 269 268 268 267 267 267 267 267 266 266 266 266 266 265 265 265 265 265
286 285 284 282 281 281 280 279 278 277 277 276 274 273 272 272 271 271 271 271 270 270 269 269 268 268 268 267 267 267 266 266 266 266 265 265 265 265 265 265 265 265
285 284 283 282 281 280 279 278 277 277 276 275 273 272 272 271 271 271 271 270 270 269 269 269 268 268 267 267 267 266 266 266 266 265 265 265 265 265 265 265 265 264
285 284 283 282 281 280 279 278 277 277 276 274 273 272 272 271 271 271 270 270 270 269 269 269 268 268 267 267 266 266 266 266 265 265 265 265 265 264 264 264 264 264
284 283 282 281 280 279 278 277 277 276 275 273 272 272 271 271 271 271 270 270 270 269 269 268 268 267 267 266 266 266 266 265 265 265 265 265 264 264 264 264 264 264
284 283 282 281 280 279 278 277 277 276 274 273 272 272 271 271 271 270 270 270 270 269 269 268 268 267 267 266 266 265 265 265 265 265 264 264 264 264 264 264 264 264
283 282 281 280 279 278 278 277 276 274 273 272 272 271 271 271 270 270 270 270 270 269 269 268 267 267 266 266 265 265 265 265 264 264 264 264 264 264 264 264 263 263
282 282 280 280 279 278 277 276 275 273 272 272 271 271 271 270 270 270 270 270 269 269 268 268 267 267 266 266 265 265 264 264 264 264 264 264 263 263 263 263 263 263
282 281 280 279 278 277 276 275 273 272 272 271 271 271 270 270 270 270 270 269 269 269 268 268 267 267 266 266 265 265 264 264 264 264 264 263 263 263 264 264 263 263
281 280 279 278 277 277 275 273 272 272 271 271 270 270 270 270 270 270 269 269 269 268 268 267 267 267 266 266 265 265 264 264 264 263 263 263 264 264 264 264 264 263
281 279 278 278 277 275 274 273 272 271 271 271 270 270 270 270 270 269 269 269 268 268 268 267 267 266 266 266 265 265 264 264 264 264 264 264 264 264 264 264 264 264
280 279 278 277 276 274 273 272 272 271 271 270 270 270 270 270 269 269 269 268 268 268 267 267 266 266 266 265 265 264 264 264 264 264 264 264 264 265 265 264 264 264
279 278 277 276 275 273 272 272 271 271 271 270 270 270 270 269 269 269 268 268 268 268 267 267 266 266 266 265 265 264 264 264 264 264 265 265 265 265 265 264 264 264
278 277 276 275 274 272 272 271 271 271 271 270 270 270 269 269 269 268 268 268 268 267 267 267 266 266 266 265 265 265 265 265 264 264 264 264 264 264 264 263 263 263
278 277 275 274 273 272 271 271 271 271 270 270 270 269 269 268 268 268 268 268 267 267 267 267 266 266 266 265 265 265 266 266 265 265 264 264 264 263 263 263 263 263
277 276 274 273 272 272 271 271 271 271 270 270 269 269 268 268 268 268 268 268 267 267 267 266 266 266 266 265 265 266 266 266 266 265 265 264 264 263 263 263 262 262
276 274 273 273 272 271 271 271 271 270 270 270 269 268 268 268 267 267 267 267 267 267 267 266 266 266 266 265 265 265 265 266 265 265 265 264 264 263 263 263 262 262
275 274 273 272 272 271 271 271 271 270 270 269 268 268 267 267 267 267 267 267 267 267 267 267 267 266 266 265 265 265 265 265 265 264 264 263 263 263 263 263 263 263
274 273 272 272 271 271 271 271 270 270 269 268 268 267 267 267 267 267 267 267 267 267 267 267 267 266 265 265 265 265 265 264 264 264 263 263 263 263 263 263 263 263
273 272 272 272 271 271 271 270 270 269 268 268 267 267 267 267 267 267 267 267 267 267 267 267 267 266 265 265 265 265 264 263 263 263 262 262 262 262 262 262 262 263
272 272 272 271 271 271 270 269 269 268 268 267 267 267 267 267 267 267 267 267 267 267 266 266 267 266 265 265 265 264 264 263 262 262 262 262 262 262 262 262 262 262
272 272 272 271 271 270 269 269 268 268 267 267 267 267 267 267 267 267 267 267 267 267 266 266 266 266 265 265 265 264 264 263 262 262 262 261 261 261 261 261 261 262
272 272 271 271 270 269 269 268 268 268 267 267 267 267 267 267 267 267 267 267 266 266 266 266 266 266 265 265 264 264 264 263 262 261 261 261 261 261 261 261 261 262

ECMWFNIL_850_thetae_114.txt.gz
Theta_e
292 292 292 292 291 291 291 291 291 290 290 290 290 289 289 288 287 286 284 283 282 281 281 280 279 279 277 275 274 274 273 273 273 272 272 271 271 271 270 270 270 269
293 292 292 292 292 292 291 291 291 291 290 290 290 289 288 287 287 285 284 283 282 281 280 280 279 279 277 275 274 273 273 273 272 272 271 271 270 270 270 270 270 269
293 293 293 292 292 292 292 291 291 291 290 290 290 289 288 287 286 285 284 283 282 281 280 280 279 278 277 275 274 273 273 272 272 272 271 271 270 270 270 269 269 268
294 293 293 293 293 292 292 291 291 291 291 290 290 289 288 287 286 285 284 283 282 281 280 279 279 278 277 275 274 273 272 272 272 271 270 270 270 270 269 269 269 268
294 294 293 293 293 292 292 292 291 291 291 290 290 289 288 287 286 284 283 282 282 280 280 279 279 278 277 275 273 273 272 272 271 271 270 270 269 269 269 269 269 268
294 294 294 293 293 292 292 292 292 291 291 290 289 288 287 286 285 284 283 282 281 280 279 279 278 278 276 274 273 272 272 272 271 270 270 270 269 268 268 268 268 268
294 294 293 293 293 292 292 291 291 291 290 289 288 288 287 285 284 283 283 282 281 280 279 278 278 277 276 274 273 272 272 271 271 270 269 269 269 268 268 268 268 268
294 293 293 292 292 291 291 291 290 290 289 289 288 287 286 285 283 283 282 281 280 279 278 278 278 277 275 274 273 272 272 271 270 270 269 269 268 268 268 267 267 267
293 292 292 291 291 290 290 290 290 289 288 288 287 286 285 284 283 282 282 280 279 279 278 278 277 276 275 273 272 272 271 271 270 269 269 269 268 268 268 267 267 266
292 292 292 291 291 290 290 289 289 288 288 288 287 286 285 284 282 282 281 280 279 278 278 277 277 275 274 273 272 271 271 270 270 269 269 268 268 268 267 267 267 266
292 292 291 291 291 290 290 289 289 288 288 288 287 285 284 283 282 281 280 279 279 278 277 277 276 275 273 272 272 271 270 270 269 269 269 268 268 268 267 267 267 266
291 291 291 291 290 290 289 289 288 288 288 287 286 285 284 283 282 281 280 279 278 278 277 277 275 273 272 272 271 271 270 270 269 269 269 268 268 268 267 267 267 266
291 291 290 290 290 289 289 288 288 288 288 287 286 284 283 282 281 280 280 279 278 277 277 276 274 273 272 271 271 270 270 269 269 269 268 268 268 267 267 267 267 266
291 290 290 289 289 289 288 288 288 288 287 286 285 284 283 282 281 280 279 278 277 277 276 275 273 272 272 271 271 270 270 269 269 268 268 267 267 267 267 267 267 266
290 290 289 289 289 289 289 288 288 287 286 285 284 283 282 281 280 279 278 277 277 276 275 274 273 272 272 271 270 270 269 269 268 268 267 267 267 267 267 267 267 266
290 290 289 289 289 289 288 287 286 285 284 283 283 282 281 280 279 278 277 277 276 275 274 273 272 272 271 270 270 269 269 268 268 268 267 267 267 267 267 267 267 267
289 289 289 288 287 287 286 285 285 284 283 283 282 281 280 279 278 277 277 276 276 274 273 272 272 271 271 270 269 268 268 268 268 268 267 267 268 268 268 267 267 267
288 288 287 287 286 285 285 284 283 283 282 282 281 280 279 278 277 277 276 276 274 273 272 272 271 271 270 269 269 268 268 267 267 267 267 267 267 267 267 267 266 266
287 287 286 286 285 285 284 283 283 282 282 281 280 279 278 277 277 276 276 274 273 272 272 271 271 270 270 269 268 268 267 267 266 266 266 266 267 267 267 266 266 266
286 286 285 285 284 283 283 282 282 281 280 279 278 277 277 277 276 275 274 273 272 271 271 270 270 270 269 268 268 267 267 266 266 266 266 266 266 266 266 266 266 266
286 285 284 284 283 282 282 281 281 280 279 278 277 277 276 276 275 274 273 272 271 271 270 270 270 269 269 268 268 267 267 266 266 266 266 266 266 266 266 266 265 265
284 284 283 283 282 281 281 280 279 278 278 277 276 276 275 274 273 272 272 271 271 270 270 269 269 269 268 268 267 267 267 266 266 266 266 266 266 266 266 266 266 265
283 282 282 281 281 280 280 279 278 277 277 276 275 275 274 273 272 272 271 270 270 270 269 269 269 269 268 268 267 267 267 266 266 266 266 266 266 266 266 266 266 266
281 281 280 280 280 279 278 278 277 276 276 275 274 273 272 272 271 271 270 270 270 270 269 269 269 269 268 267 267 267 267 266 266 266 266 266 266 266 266 265 265 266
280 279 279 279 278 278 277 276 276 275 274 273 273 272 272 271 271 270 270 270 270 269 269 269 269 269 268 267 267 267 267 266 266 265 266 266 266 266 266 265 265 265
279 278 278 277 277 276 276 275 274 273 273 272 272 272 271 270 270 270 269 269 269 269 269 268 268 268 268 267 267 267 267 266 266 265 266 266 266 266 265 264 264 265

ECMWFNIL_850_thetae_117.txt.gz
Theta_e
294 294 293 293 292 292 291 291 290 290 290 290 290 290 290 290 290 290 290 290 289 288 288 287 286 286 286 285 284 282 281 281 280 279 277 276 275 275 274 274 273 272
294 294 293 293 292 292 292 292 291 290 290 290 289 289 289 289 289 289 289 289 288 288 287 287 286 286 285 284 283 282 281 280 279 278 277 276 275 274 274 273 273 272
294 294 294 293 293 293 292 292 291 290 289 289 289 289 288 288 288 288 288 288 288 287 287 286 286 285 284 284 283 281 280 280 279 278 277 275 275 274 273 273 272 271
294 294 294 294 293 292 292 291 290 289 289 288 288 288 288 288 287 288 288 287 287 286 286 286 285 284 284 283 282 281 280 279 278 277 276 275 274 274 273 273 272 271
294 294 294 293 293 292 291 290 289 289 288 288 288 287 287 287 287 287 287 286 286 285 285 285 284 283 283 282 281 280 279 279 278 277 276 275 274 273 273 272 272 271
294 294 294 293 293 292 291 290 290 289 288 287 287 286 286 286 286 286 286 286 285 284 284 284 283 283 282 281 281 279 279 278 278 277 275 274 273 273 272 272 271 271
293 293 293 293 292 292 291 291 290 289 288 287 286 286 286 286 285 285 285 285 284 284 283 283 283 282 282 281 280 279 278 278 277 276 275 274 273 272 272 271 271 270
293 293 293 292 292 291 291 291 290 289 288 287 286 286 286 285 285 285 284 284 284 283 283 283 283 282 281 281 280 278 278 278 277 276 275 274 273 272 272 271 270 270
293 292 292 292 292 291 291 291 290 289 288 287 287 286 285 285 285 284 284 283 283 283 282 282 282 281 281 280 279 278 278 277 277 276 275 273 273 272 272 271 270 270
292 292 292 292 291 291 291 291 290 289 288 287 287 286 285 285 284 284 283 283 282 282 282 281 281 281 281 280 279 278 278 278 277 275 274 273 272 272 271 271 270 269
292 292 291 291 291 291 291 290 289 288 288 287 286 285 285 284 284 283 283 282 282 281 281 281 281 280 280 279 278 278 278 277 276 275 274 273 272 272 271 271 270 269
291 291 291 291 290 290 290 289 289 288 288 287 286 285 285 284 284 283 283 282 281 281 281 281 280 280 279 278 278 277 277 277 276 274 273 272 272 272 271 270 270 269
291 290 290 290 290 290 289 289 288 288 287 287 286 285 285 284 284 283 282 282 281 280 280 280 280 279 278 278 277 277 277 276 275 274 273 272 272 271 271 270 270 269
290 290 289 289 289 289 289 289 288 288 287 286 286 285 285 284 284 283 282 281 281 280 280 279 279 278 278 278 277 277 277 276 274 273 272 272 271 271 270 270 269 269
290 289 289 289 289 289 289 288 288 287 287 286 286 285 285 284 283 283 282 281 281 280 280 279 278 278 278 278 278 277 276 275 274 273 272 271 271 270 269 269 269 269
289 289 289 290 289 289 289 288 288 287 287 286 286 285 285 284 283 282 282 281 280 280 280 279 278 278 278 278 277 276 275 273 272 272 271 270 270 269 269 269 269 268
290 290 290 290 289 289 289 288 288 287 287 286 286 286 285 284 283 283 282 281 280 280 279 278 278 278 278 277 276 275 273 272 272 271 271 270 269 269 269 269 268 268
290 289 289 289 289 288 288 287 287 287 286 286 286 286 285 284 283 282 281 281 280 279 278 278 278 278 277 276 274 273 272 272 271 271 270 270 269 269 269 268 268 268
289 289 289 289 288 287 287 286 286 286 285 285 285 284 284 283 282 281 281 280 279 278 278 278 277 277 276 275 273 272 271 271 270 270 269 269 269 269 269 268 268 268
288 288 288 287 287 286 286 285 285 285 284 284 283 282 282 281 281 280 280 279 279 278 277 277 276 276 275 273 272 271 270 270 269 269 268 268 268 268 268 268 268 267
287 287 286 286 286 285 285 285 284 284 283 282 282 281 281 280 280 279 279 278 278 277 276 276 276 275 274 272 271 270 270 269 269 268 268 268 267 267 267 267 267 267
286 285 285 285 284 284 284 283 283 283 282 281 281 280 280 280 279 278 278 277 276 276 275 275 274 273 273 272 271 270 269 269 268 268 268 267 267 267 267 267 266 266
285 284 284 284 283 283 282 282 282 281 281 280 280 280 279 278 278 277 276 276 275 275 274 274 273 272 272 271 270 269 269 268 268 267 267 266 266 267 267 267 266 266
284 283 283 282 282 281 281 281 280 280 280 279 279 278 277 277 276 275 275 275 274 274 273 273 272 272 271 270 269 269 268 268 267 267 266 266 266 266 267 266 267 267
283 282 282 281 281 280 280 279 279 278 278 278 277 276 276 275 275 274 274 273 273 273 272 272 271 271 270 270 269 268 268 267 267 266 266 266 266 266 266 266 267 267
282 281 280 280 279 279 279 278 278 277 276 276 275 275 274 274 273 273 273 272 272 272 271 271 270 270 270 269 269 268 267 267 266 266 266 266 266 266 266 266 267 267

ECMWFNIL_850_thetae_120.txt.gz
Theta_e
294 294 294 293 293 293 292 292 291 291 290 289 289 289 289 289 289 288 288 288 289 289 289 289 289 289 289 288 288 287 287 286 286 286 286 285 285 284 283 283 282 281
295 294 294 294 293 293 293 292 291 290 290 290 289 289 289 288 288 287 287 287 287 288 288 288 288 288 288 288 287 287 286 286 286 285 285 284 283 283 282 282 281 280
295 294 294 294 294 293 293 292 291 290 290 289 289 289 288 288 288 287 287 286 286 286 287 287 287 287 287 286 286 286 286 285 285 285 284 283 283 282 281 280 280 279
294 294 294 294 293 293 293 292 291 290 290 289 289 289 288 288 287 287 286 286 286 285 285 285 286 286 286 285 285 285 284 284 284 284 283 282 282 281 281 280 278 278
294 294 293 293 293 293 292 291 291 291 290 290 289 288 288 288 287 287 286 286 285 285 285 284 284 284 285 284 284 283 283 283 283 282 282 281 281 281 280 279 278 277
294 294 293 293 293 292 292 291 291 291 290 290 289 288 288 287 287 287 286 286 285 285 284 283 283 283 283 283 282 282 282 282 282 281 281 281 281 281 280 278 277 276
294 293 293 293 292 292 291 291 291 290 290 290 289 288 288 287 287 287 286 286 285 285 284 283 283 283 283 282 282 281 281 281 281 281 281 281 281 280 279 278 277 276
293 293 293 292 292 291 291 291 291 290 290 289 289 288 288 287 287 287 286 286 285 285 284 283 283 283 282 282 281 281 281 280 280 280 280 280 280 280 279 277 276 275
293 293 292 292 292 291 291 291 290 290 289 289 288 288 288 287 287 286 286 286 285 285 284 283 282 282 282 281 281 281 280 280 280 280 280 280 280 279 278 277 276 275
292 292 292 292 292 291 291 291 290 290 289 289 289 288 287 287 286 286 286 285 285 284 284 283 282 282 281 281 280 280 280 280 280 280 280 280 280 279 278 276 275 274
292 292 292 292 292 291 291 291 290 290 289 289 288 288 287 287 286 286 286 285 285 284 284 283 282 282 281 281 280 280 279 280 280 280 280 280 279 278 277 276 275 274
292 292 292 292 291 291 291 290 290 290 289 289 288 288 287 287 286 286 286 285 285 284 283 283 282 282 281 280 280 280 279 279 279 279 279 279 278 277 276 275 274 274
291 291 291 291 291 291 291 290 290 289 289 288 288 287 287 287 286 286 285 285 284 283 283 282 282 281 281 280 280 279 279 279 279 279 278 278 277 277 276 274 274 273
291 291 291 291 291 290 290 290 289 289 288 288 287 287 287 286 286 285 285 284 284 283 282 282 281 281 280 280 279 279 279 279 278 278 278 277 277 276 275 274 273 272
290 290 290 290 290 290 290 289 289 288 288 287 287 286 286 285 285 285 284 284 283 282 282 281 281 280 280 279 279 279 278 278 278 277 277 277 277 276 275 274 273 272
289 289 289 289 289 289 289 288 288 287 287 287 286 286 285 285 284 284 283 283 283 282 282 281 280 280 279 279 279 278 278 278 277 277 277 277 276 275 274 273 272 271
288 288 288 288 288 287 287 287 287 286 286 286 285 285 285 284 284 283 283 283 282 282 281 281 280 280 279 278 278 277 277 277 277 277 277 276 275 274 273 272 271 271
287 287 287 287 287 286 286 286 286 286 285 285 285 285 285 284 284 284 283 283 282 281 281 280 279 279 278 278 277 277 276 276 276 276 276 275 274 273 272 271 271 270
287 287 287 287 287 286 286 286 285 285 285 285 285 284 284 284 283 283 282 282 281 280 280 279 279 278 278 277 276 276 276 276 276 276 275 274 273 272 271 270 270 270
287 287 287 287 286 286 285 285 285 285 284 284 284 284 283 283 282 282 281 281 280 280 279 278 278 278 277 276 276 275 275 275 275 275 274 273 272 271 271 270 270 269
287 286 286 285 285 285 284 284 284 284 284 283 283 283 282 282 281 280 280 280 279 279 278 277 277 277 276 276 275 275 275 274 274 273 273 272 271 271 270 270 270 270
285 285 284 284 284 284 284 284 283 283 283 282 282 281 281 280 280 279 279 279 278 278 277 277 276 276 275 275 275 275 274 274 273 272 272 271 271 270 270 269 269 269
284 283 283 283 283 283 283 282 282 281 281 281 281 280 280 280 279 279 278 278 277 277 276 276 276 275 275 275 275 274 273 273 272 272 271 271 271 270 269 269 268 268
283 283 283 282 282 282 281 281 280 280 280 280 280 279 279 279 278 278 277 277 276 276 276 275 275 275 275 274 274 273 272 271 271 271 270 270 270 269 269 269 268 268
282 282 282 281 281 280 280 280 279 279 279 279 278 278 278 277 277 276 276 276 275 275 275 274 274 274 274 273 272 271 271 270 270 270 270 269 269 269 269 268 268 268
281 281 280 280 279 279 279 279 278 278 278 278 277 277 276 276 276 275 275 274 274 274 274 273 273 273 272 272 271 271 270 270 270 269 269 269 268 268 268 268 268 268

ECMWFNIL_850_thetae_123.txt.gz
Theta_e
295 294 294 294 294 294 293 293 293 293 292 292 292 292 292 291 291 291 290 290 290 289 289 288 288 288 288 287 287 287 287 287 287 287 287 287 287 287 287 287 286 286
295 294 294 294 294 294 294 293 293 292 292 292 292 291 291 291 290 290 290 289 289 289 288 288 288 287 287 287 287 287 287 286 287 287 287 287 287 286 286 286 286 285
295 295 294 294 294 294 294 293 293 292 292 292 291 291 291 290 290 289 289 289 289 288 288 288 287 287 287 286 286 286 286 286 286 286 286 286 286 286 286 285 285 284
295 295 295 294 294 294 294 293 293 293 292 292 292 291 291 290 289 289 289 289 288 288 288 287 287 287 286 286 285 285 285 285 285 285 285 285 285 285 285 284 284 284
295 295 294 294 294 294 293 293 293 293 292 292 292 292 291 290 289 289 289 288 288 288 287 287 287 286 286 286 285 285 285 284 284 284 284 284 284 284 284 283 283 283
295 295 294 294 294 294 293 293 293 293 292 292 292 292 291 290 290 289 289 288 288 288 287 287 287 286 286 285 285 284 284 284 284 283 283 283 283 283 282 282 282 282
294 294 294 294 294 293 293 293 293 293 292 292 292 291 291 290 290 289 289 289 288 288 287 287 287 286 286 285 285 284 284 284 283 283 283 282 282 281 281 281 281 281
294 294 293 293 293 293 293 293 293 293 292 292 292 291 291 290 290 290 289 289 288 288 287 287 287 286 286 285 285 284 284 283 283 282 282 282 281 281 280 280 280 280
294 293 293 293 293 293 293 292 292 292 292 292 292 291 291 290 290 290 289 288 288 288 287 287 286 286 285 285 285 284 284 283 283 282 282 281 281 280 280 279 279 279
293 293 292 292 292 292 292 292 292 292 292 292 292 291 291 290 290 289 289 288 288 287 287 287 286 286 285 285 285 284 284 283 282 282 281 281 280 280 279 279 279 279
293 292 292 292 291 291 291 291 292 292 292 292 291 291 291 290 290 289 289 288 288 287 287 287 286 286 286 285 285 284 283 283 282 281 281 281 280 279 279 279 279 279
292 292 291 291 291 291 291 291 291 291 292 291 291 291 290 290 289 289 288 288 288 287 287 287 286 286 286 285 284 284 283 282 281 281 280 280 279 279 278 278 278 278
291 291 291 290 290 290 290 290 291 291 291 291 291 291 290 290 289 289 288 288 287 287 287 287 286 286 286 285 284 283 283 282 281 281 280 279 279 278 278 278 278 278
291 290 290 290 289 289 289 289 290 291 291 291 291 290 290 289 289 288 288 288 287 287 287 286 286 286 285 285 284 283 282 282 281 280 280 279 278 278 278 278 277 277
290 289 289 289 289 288 288 289 289 290 290 290 290 290 289 289 288 288 287 287 287 286 286 286 285 285 285 284 283 283 282 281 281 280 279 279 278 278 277 277 277 277
288 288 288 288 288 287 287 288 289 289 289 289 289 289 288 288 288 287 287 286 286 286 285 285 285 284 284 283 283 282 282 281 280 280 279 279 278 278 277 277 276 277
287 287 287 287 287 286 287 287 287 288 288 288 288 287 287 287 286 286 286 285 285 285 284 284 284 284 283 283 282 282 281 281 280 280 279 278 278 277 277 277 276 276
287 287 287 287 287 287 286 286 286 286 286 286 286 286 286 285 285 285 284 284 284 284 283 283 283 283 282 282 281 281 280 280 279 279 278 278 278 277 277 276 276 276
287 287 287 287 287 287 287 286 286 286 285 285 285 285 284 284 284 284 284 283 283 283 283 282 282 282 281 281 281 280 280 279 279 278 278 278 277 277 277 276 276 276
287 286 286 286 286 286 285 285 285 285 284 284 284 284 284 284 283 283 283 282 282 282 282 281 281 281 280 280 280 279 278 278 278 278 277 277 277 276 276 276 276 276
285 285 284 284 284 284 284 284 284 283 283 283 283 283 283 282 282 282 282 281 281 281 280 280 280 280 279 279 279 278 278 278 277 277 277 276 276 276 276 275 275 275
283 283 283 283 283 283 282 282 282 282 282 282 281 281 281 281 281 280 280 280 280 279 279 279 279 278 278 278 277 277 277 277 277 277 276 276 275 275 275 275 274 274
281 281 281 281 281 281 281 281 281 281 281 280 280 280 280 280 279 279 279 279 278 278 278 277 277 277 277 277 276 276 277 277 277 277 276 275 275 275 274 274 273 273
280 280 280 280 280 280 280 280 280 280 279 279 279 279 279 279 278 278 278 278 277 277 276 276 276 276 275 275 275 275 276 276 276 276 276 275 275 274 274 273 272 272
279 279 279 279 279 279 279 279 279 278 278 278 278 278 278 278 277 277 277 277 276 276 275 275 275 275 275 275 274 275 275 275 275 275 275 275 274 273 273 272 272 271
278 278 278 278 278 278 278 278 278 277 277 277 277 277 277 277 276 276 276 276 275 275 275 274 274 274 274 274 274 274 274 274 274 274 273 273 273 272 272 272 271 271